GW4774 Weather Reports


time (UTC)temp
C
wind
direction
speed
KPH
gust
KPH
rain 1hr
cm
rain 24hr
cm
rain mn
cm
humidity
%
barometer
mb
20260505180004 19 247 3.2 17.7 0.00 0.00 0.00 65 1007.6
20260505174513 20 301 3.2 11.3 0.00 0.00 0.00 66 1007.4
20260505173019 20 200 0.0 8.0 0.00 0.00 0.00 65 1007.4
20260505164505 21 225 1.6 14.5 0.00 0.00 0.00 64 1007.3
20260505163009 21 146 1.6 12.9 0.00 0.00 0.00 61 1007.3
20260505161513 22 256 3.2 11.3 0.00 0.00 0.00 59 1007.3
20260505153017 21 30 3.2 12.9 0.00 0.00 0.00 63 1006.7
20260505151510 21 240 3.2 11.3 0.00 0.00 0.00 63 1006.8
20260505120024 16 124 0.0 3.2 0.00 0.00 0.00 74 1006.2
20260505114524 16 188 1.6 9.7 0.00 0.00 0.00 74 1006.3
20260505111504 16 306 1.6 6.4 0.00 0.00 0.00 74 1006.1
20260505101526 16 228 1.6 6.4 0.00 0.00 0.00 73 1005.5
20260505100023 16 229 0.0 6.4 0.00 0.00 0.00 73 1005.5
20260505094518 16 157 1.6 8.0 0.00 0.00 0.00 73 1005.3
20260505093014 16 289 1.6 4.8 0.00 0.00 0.00 73 1005.2
20260505091514 16 186 0.0 4.8 0.00 0.00 0.00 72 1005.0
20260505090021 16 283 1.6 8.0 0.00 0.00 0.00 74 1004.9
20260505084534 15 154 1.6 6.4 0.00 0.00 0.00 76 1004.7
20260505083009 15 239 1.6 8.0 0.00 0.00 0.00 78 1004.7
20260505081515 16 264 0.0 11.3 0.00 0.00 0.00 77 1004.6
20260505080015 16 255 1.6 8.0 0.00 0.00 0.00 73 1004.2
20260505074523 16 117 0.0 4.8 0.00 0.00 0.00 74 1004.2
20260505073034 15 254 1.6 4.8 0.00 0.00 0.00 74 1003.9
20260505071509 15 141 0.0 1.6 0.00 0.00 0.00 74 1003.9
20260505070029 16 132 1.6 4.8 0.00 0.00 0.00 73 1003.9
20260505064520 16 186 1.6 6.4 0.00 0.00 0.00 73 1004.0
20260505063022 16 109 1.6 9.7 0.00 0.00 0.00 73 1004.2
20260505061535 16 158 0.0 4.8 0.00 0.00 0.00 72 1004.3
20260505060011 16 274 0.0 6.4 0.00 0.00 0.00 71 1004.5
20260505054516 16 64 0.0 8.0 0.00 0.00 0.00 70 1004.6
20260505053022 17 223 1.6 8.0 0.00 0.00 0.00 70 1004.8
20260505051524 17 158 0.0 9.7 0.00 0.00 0.00 69 1004.9
20260505041504 17 360 3.2 16.1 0.00 0.00 0.00 70 1005.1
20260505040007 16 141 1.6 9.7 0.00 0.00 0.00 71 1005.2
20260505034521 16 145 0.0 9.7 0.00 0.00 0.00 72 1005.4
20260505033014 16 263 0.0 3.2 0.00 0.00 0.00 72 1005.3
20260505031533 16 214 3.2 8.0 0.00 0.00 0.00 71 1005.2
20260505030005 16 169 1.6 3.2 0.00 0.00 0.00 71 1005.2
20260505024511 16 248 0.0 9.7 0.00 0.00 0.00 71 1005.2
20260505023015 16 215 0.0 4.8 0.00 0.00 0.00 72 1005.3
20260505021517 16 200 0.0 4.8 0.00 0.00 0.00 70 1005.5
20260505020020 16 190 0.0 3.2 0.00 0.00 0.00 69 1005.5
20260505014506 16 279 0.0 4.8 0.00 0.00 0.00 68 1005.4
20260505013011 17 174 0.0 4.8 0.00 0.00 0.00 66 1005.3
20260505011514 17 176 1.6 9.7 0.00 0.00 0.00 63 1005.4
20260505010024 18 150 1.6 9.7 0.00 0.00 0.00 62 1005.3
20260505004527 18 276 0.0 12.9 0.00 0.00 0.00 60 1005.0
20260505003008 18 278 0.0 17.7 0.00 0.00 0.00 60 1004.8
20260505001508 19 134 0.0 9.7 0.00 0.00 0.00 60 1004.5
20260505000013 19 248 3.2 12.9 0.00 0.00 0.00 58 1004.3
20260504234528 20 304 0.0 6.4 0.00 0.00 0.00 55 1004.1
20260504233024 21 207 1.6 6.4 0.00 0.00 0.00 54 1004.0
20260504231525 21 193 3.2 11.3 0.00 0.00 0.00 54 1004.2
20260504230028 21 316 3.2 9.7 0.00 0.00 0.00 57 1004.2
20260504224520 21 172 1.6 17.7 0.00 0.00 0.00 55 1004.4
20260504223005 23 101 1.6 9.7 0.00 0.00 0.00 52 1004.5
20260504221504 21 145 1.6 9.7 0.00 0.00 0.00 56 1004.7
20260504220014 22 165 3.2 11.3 0.00 0.00 0.00 54 1004.9
20260504214514 22 227 4.8 24.1 0.00 0.00 0.00 52 1004.6
20260504213032 22 172 3.2 12.9 0.00 0.00 0.00 55 1004.7
20260504211506 22 243 3.2 12.9 0.00 0.00 0.00 53 1004.9
20260504210008 22 152 1.6 14.5 0.00 0.00 0.00 54 1004.8
20260504203026 22 302 1.6 17.7 0.00 0.00 0.00 53 1005.1
20260504201504 23 248 3.2 16.1 0.00 0.00 0.00 50 1005.1
20260504194510 24 276 1.6 9.7 0.00 0.00 0.00 50 1005.4
20260504193012 23 240 3.2 12.9 0.00 0.00 0.00 51 1005.7
20260504190004 23 217 6.4 11.3 0.00 0.00 0.00 50 1006.1
20260504183010 21 264 3.2 12.9 0.00 0.00 0.00 54 1006.4
20260504181515 21 273 4.8 20.9 0.00 0.00 0.00 52 1006.5